User: anonymous   Login
Location: Vancouver
(49.2500°N, 123.1330°W)
Time: 09:25:03
(UTC-07:00)
Language:

SO-67 - Orbit

View from above orbital plane
View from above orbital plane
View from above satellite
View from above satellite

Ground track
Ground track

The orbit data is extracted from the following two-line orbital elements,

1 35870U 09049F   16210.34749475  .00005037  00000-0  93826-4 0  9995
2 35870  97.1181 224.6563 0002175 112.6452 343.7366 15.49287242383017
Epoch (UTC): 28 July 2016 08:20:23
Eccentricity: 0.0002175
inclination: 97.1181°
perigee height: 417 km
apogee height: 420 km
right ascension of ascending node: 224.6563°
argument of perigee: 112.6452°
revolutions per day: 15.49287242
mean anomaly at epoch: 343.7366°
orbit number at epoch: 38301

The dashed part of the orbit path shows where the satellite is in the earth's shadow,  

DLR